This is the latest recevied weather packets stored in our database for station/object SQ9MHX-13. If no packets are shown the sender has not sent any weather packets the latest 10 day(s).
| Time | Temp. | Humidity | Pressure | Rain* | Wind** | Luminosity | Snow |
|---|---|---|---|---|---|---|---|
| 1777926688 | 16.11° C | 41% | 961.3 hPa | - | 0 m/s | - | - |
| 1777926390 | 16.11° C | 42% | 961.9 hPa | - | 0 m/s | - | - |
| 1777926091 | 15° C | 45% | 963.1 hPa | - | 0 m/s | - | - |
| 1777925792 | 15° C | 47% | 961.9 hPa | - | 0 m/s | - | - |
| 1777925493 | 16.11° C | 42% | 961.7 hPa | - | 0 m/s | - | - |
| 1777925195 | 16.11° C | 44% | 961.4 hPa | - | 0 m/s | - | - |
| 1777924896 | 17.22° C | 39% | 960.3 hPa | - | 0 m/s | - | - |
| 1777924597 | 17.22° C | 39% | 959.8 hPa | - | 0 m/s | - | - |
| 1777924299 | 17.22° C | 38% | 959.4 hPa | - | 0 m/s | - | - |
| 1777924000 | 17.22° C | 38% | 959.5 hPa | - | 0 m/s | - | - |
| 1777923701 | 17.22° C | 38% | 959.7 hPa | - | 0 m/s | - | - |
| 1777923402 | 17.22° C | 39% | 959.7 hPa | - | 0 m/s | - | - |
| 1777923104 | 17.22° C | 39% | 959.6 hPa | - | 0 m/s | - | - |
| 1777922805 | 17.22° C | 39% | 959.5 hPa | - | 0 m/s | - | - |
| 1777922506 | 17.22° C | 39% | 959.2 hPa | - | 0 m/s | - | - |
| 1777922207 | 17.78° C | 38% | 958.9 hPa | - | 0 m/s | - | - |
| 1777921908 | 17.78° C | 38% | 958.7 hPa | - | 0 m/s | - | - |
| 1777921610 | 17.78° C | 36% | 958.1 hPa | - | 0 m/s | - | - |
| 1777921311 | 17.78° C | 35% | 958 hPa | - | 0 m/s | - | - |
| 1777921012 | 17.78° C | 35% | 957.8 hPa | - | 0 m/s | - | - |
| 1777920713 | 18.89° C | 34% | 957.4 hPa | - | 0 m/s | - | - |
| 1777920414 | 18.89° C | 33% | 956.5 hPa | - | 0 m/s | - | - |
| 1777919816 | 18.89° C | 32% | 956.1 hPa | - | 0 m/s | - | - |
| 1777919518 | 20° C | 32% | 956.2 hPa | - | 0 m/s | - | - |
| 1777919219 | 20° C | 32% | 956 hPa | - | 0 m/s | - | - |
* Rain since midnight (hover to see other rain measurements)
** Current wind speed in m/s (hover to see current wind gust speed)